User: anonymous   Login
Location: Unspecified
(0.0000°N, 0.0000°E)
Time: 00:05:54
(UTC+00:00)
Language:

SARAL - Orbit

View from above orbital plane
View from above orbital plane
View from above satellite
View from above satellite

Ground track
Ground track

The orbit data is extracted from the following two-line orbital elements,

1 39086U 13009A   17172.92351527 +.00000002 +00000-0 +16824-4 0  9998
2 39086 098.5405 000.4474 0000712 149.5071 210.6154 14.32004270225781
Epoch (UTC): 21 June 2017 22:09:51
Eccentricity: 0.0000712
inclination: 98.5405°
perigee height: 784 km
apogee height: 785 km
right ascension of ascending node: 0.4474°
argument of perigee: 149.5071°
revolutions per day: 14.32004270
mean anomaly at epoch: 210.6154°
orbit number at epoch: 22578

The dashed part of the orbit path shows where the satellite is in the earth's shadow,  

DLR